Location: Newark
(40.7830°N, 8.7430°E)
Time: 08:03:14
(UTC+00:00)

N. Korean satellite - Visible Passes

Search period start: 16 September 2019 00:00
Search period end: 26 September 2019 00:00
Orbit: 455 x 508 km, 97.2° (Epoch: 15 September)

Date Brightness Start Highest point End Pass type
(mag) Time Alt. Az. Time Alt. Az. Time Alt. Az.
18 Sep 10.2 04:20:04 10° ENE 04:21:07 11° E 04:22:10 10° ESE visible
21 Sep 9.7 04:36:28 10° NE 04:38:58 19° E 04:41:28 10° SE visible
25 Sep 9.8 04:29:16 10° NE 04:31:24 15° E 04:33:31 10° SE visible
